Pope AFB, NC

8:08 PM EST on February 27, 2017 (GMT -0500)
Pope Field Airport

Weather History for KPOB - March, 2013

Change the Weather History Date:

Monday, March 18, 2013

  Actual Average Record
Temperature  
Mean Temperature 46 °F -  
Max Temperature 51 °F 64 °F 85 °F (2011)
Min Temperature 40 °F 43 °F 27 °F (2007)
Degree Days  
Heating Degree Days 20    
Moisture  
Dew Point 41 °F    
Average Humidity 89    
Maximum Humidity 100    
Minimum Humidity 71    
Precipitation  
Precipitation 0.06 in - - ()
Sea Level Pressure  
Sea Level Pressure 30.07 in    
Wind  
Wind Speed 9 mph (NE)    
Max Wind Speed 15 mph    
Max Gust Speed 20 mph    
Visibility 9 miles    
Events Rain , Thunderstorm    
Averages and records for this station are not official NWS values.
T = Trace of Precipitation, MM = Missing Value Source: NWS Daily Summary

Daily Weather History Graph

Daily Weather History Graph

Search for Another Location

Airport or City:

Trip Planner

Search our weather history database for the weather conditions in past years. The results will help you decide how hot, cold, wet, or windy it might be!

Date:

Astronomy

Mar. 18, 2013 Rise Set
Actual Time 7:22 AM EDT 7:26 PM EDT
Civil Twilight 6:56 AM EDT 7:51 PM EDT
Nautical Twilight 6:27 AM EDT 8:21 PM EDT
Astronomical Twilight 5:57 AM EDT 8:51 PM EDT
Moon 11:32 AM EDT (3/18) 1:11 AM EDT (3/18)
Length of Visible Light 12h 54m
Length of Day
12h 04m
Waxing Crescent, 40% of the Moon is Illuminated
Mar 18
Waxing Crescent
Mar 19
First Quarter
Mar 27
Full
Apr 3
Last Quarter
Apr 10
New

Hourly Weather History & Observations

Time (EDT) Temp. Windchill Dew Point Humidity Pressure Visibility Wind Dir Wind Speed Gust Speed Precip Events Conditions
12:38 AM 46.4 °F 42.4 °F 39.2 °F 76% 30.13 in 10.0 mi East 8.1 mph 19.6 mph N/A   Overcast
12:58 AM 46.9 °F - 39.4 °F 75% 30.13 in 10.0 mi ENE 15.0 mph 19.6 mph N/A   Overcast
1:43 AM 46.4 °F 42.9 °F 41.0 °F 81% 30.13 in 10.0 mi ENE 6.9 mph - N/A   Overcast
1:58 AM 45.5 °F 41.3 °F 39.9 °F 81% 30.14 in 10.0 mi East 8.1 mph - N/A   Overcast
2:58 AM 44.6 °F 38.1 °F 40.1 °F 84% 30.13 in 10.0 mi ENE 13.8 mph - N/A   Overcast
3:03 AM 44.6 °F 38.4 °F 41.0 °F 87% 30.12 in 10.0 mi ENE 12.7 mph - N/A   Overcast
3:37 AM 42.8 °F 37.0 °F 41.0 °F 93% 30.11 in 10.0 mi ENE 10.4 mph - N/A   Overcast
3:58 AM 43.3 °F 38.1 °F 40.1 °F 88% 30.13 in 10.0 mi ENE 9.2 mph - N/A   Overcast
4:33 AM 42.8 °F 36.6 °F 41.0 °F 93% 30.11 in 9.0 mi ENE 11.5 mph - N/A   Overcast
4:53 AM 42.8 °F 38.6 °F 41.0 °F 93% 30.12 in 9.0 mi ENE 6.9 mph - N/A   Overcast
4:58 AM 42.6 °F 36.8 °F 40.3 °F 91% 30.12 in 8.0 mi ENE 10.4 mph - N/A   Overcast
5:03 AM 42.8 °F 37.5 °F 41.0 °F 93% 30.11 in 6.0 mi ENE 9.2 mph - N/A   Overcast
5:58 AM 42.1 °F 37.1 °F 40.5 °F 94% 30.14 in 9.0 mi ENE 8.1 mph - N/A   Overcast
6:23 AM 41.0 °F 34.7 °F 41.0 °F 100% 30.15 in 6.0 mi NE 10.4 mph - N/A   Overcast
6:28 AM 41.0 °F 34.3 °F 41.0 °F 100% 30.15 in 6.0 mi NE 11.5 mph - N/A   Overcast
6:43 AM 41.0 °F 34.7 °F 39.2 °F 93% 30.16 in 7.0 mi ENE 10.4 mph - N/A   Overcast
6:58 AM 41.4 °F 34.7 °F 39.9 °F 95% 30.17 in 7.0 mi NE 11.5 mph - N/A   Overcast
7:08 AM 41.0 °F 33.5 °F 41.0 °F 100% 30.15 in 7.0 mi ENE 13.8 mph - N/A   Overcast
7:13 AM 41.0 °F 34.3 °F 41.0 °F 100% 30.14 in 7.0 mi ENE 11.5 mph - N/A   Overcast
7:43 AM 41.0 °F 34.3 °F 39.2 °F 93% 30.17 in 8.0 mi NE 11.5 mph - N/A   Overcast
7:58 AM 40.8 °F 34.5 °F 39.9 °F 97% 30.18 in 10.0 mi ENE 10.4 mph - N/A   Overcast
8:04 AM 41.0 °F 34.3 °F 39.2 °F 93% 30.16 in 9.0 mi NE 11.5 mph - N/A   Overcast
8:09 AM 41.0 °F 33.9 °F 39.2 °F 93% 30.17 in 9.0 mi NE 12.7 mph - N/A Rain Light Rain
8:29 AM 41.0 °F 34.7 °F 39.2 °F 93% 30.16 in 10.0 mi ENE 10.4 mph - N/A   Overcast
8:58 AM 40.6 °F 34.3 °F 39.4 °F 95% 30.17 in 10.0 mi East 10.4 mph - 0.00 in   Overcast
9:28 AM 41.0 °F 33.1 °F 39.2 °F 93% 30.16 in 10.0 mi ENE 15.0 mph - N/A   Overcast
9:58 AM 40.6 °F 33.8 °F 39.4 °F 95% 30.17 in 10.0 mi ENE 11.5 mph - N/A   Overcast
10:13 AM 41.0 °F 34.7 °F 39.2 °F 93% 30.15 in 10.0 mi ENE 10.4 mph - N/A   Overcast
10:58 AM 41.2 °F 35.5 °F 39.7 °F 95% 30.15 in 10.0 mi East 9.2 mph - N/A   Overcast
11:43 AM 42.8 °F 40.1 °F 41.0 °F 93% 30.13 in 10.0 mi ENE 4.6 mph - N/A   Overcast
11:58 AM 42.4 °F 38.8 °F 40.3 °F 92% 30.13 in 10.0 mi East 5.8 mph - N/A   Overcast
12:13 PM 42.8 °F 38.0 °F 41.0 °F 93% 30.12 in 10.0 mi ENE 8.1 mph - N/A   Overcast
12:23 PM 42.8 °F 40.1 °F 39.2 °F 87% 30.12 in 10.0 mi ENE 4.6 mph - N/A   Overcast
12:58 PM 43.9 °F 40.5 °F 40.5 °F 88% 30.12 in 10.0 mi East 5.8 mph - N/A   Overcast
1:58 PM 44.8 °F 41.6 °F 40.8 °F 86% 30.09 in 10.0 mi NE 5.8 mph - N/A   Overcast
2:58 PM 46.4 °F 45.2 °F 41.7 °F 84% 30.04 in 10.0 mi East 3.5 mph - N/A   Overcast
3:03 PM 46.4 °F 43.5 °F 41.0 °F 81% 30.02 in 10.0 mi ENE 5.8 mph - N/A   Overcast
3:58 PM 48.2 °F - 42.4 °F 80% 30.01 in 10.0 mi Variable 3.5 mph - N/A   Mostly Cloudy
4:03 PM 48.2 °F - 42.8 °F 82% 29.99 in 10.0 mi ESE 4.6 mph - N/A   Overcast
4:18 PM 50.0 °F - 42.8 °F 76% 29.99 in 10.0 mi ENE 3.5 mph - N/A   Overcast
4:38 PM 50.0 °F - 42.8 °F 76% 29.99 in 10.0 mi ESE 4.6 mph - N/A   Overcast
4:48 PM 50.0 °F - 42.8 °F 76% 29.99 in 10.0 mi ENE 2.3 mph - N/A   Overcast
4:58 PM 49.6 °F - 43.2 °F 78% 29.99 in 10.0 mi Variable 2.3 mph - N/A   Overcast
5:28 PM 51.8 °F - 42.8 °F 71% 29.95 in 10.0 mi Variable 6.9 mph - N/A   Overcast
5:58 PM 51.6 °F - 44.1 °F 75% 29.96 in 10.0 mi Variable 2.3 mph - N/A   Overcast
6:58 PM 51.1 °F - 44.6 °F 78% 29.95 in 10.0 mi NE 5.8 mph - N/A   Overcast
7:58 PM 49.8 °F - 44.1 °F 81% 29.95 in 10.0 mi NNE 8.1 mph - N/A   Overcast
8:58 PM 48.6 °F - 43.3 °F 82% 29.99 in 10.0 mi North 8.1 mph - N/A   Overcast
9:03 PM 48.2 °F - 42.8 °F 82% 29.96 in 10.0 mi North 10.4 mph - N/A   Overcast
9:33 PM 46.4 °F 41.5 °F 42.8 °F 87% 29.98 in 10.0 mi North 10.4 mph - N/A   Overcast
9:55 PM 44.6 °F 39.2 °F 42.8 °F 93% 29.93 in 10.0 mi ENE 10.4 mph - N/A Rain , Thunderstorm Light Rain
9:58 PM 45.3 °F 41.1 °F 42.3 °F 89% 29.94 in 9.0 mi ENE 8.1 mph - 0.00 in Rain , Thunderstorm Light Rain
10:17 PM 44.6 °F 42.2 °F 42.8 °F 93% 29.95 in 7.0 mi NNW 4.6 mph - N/A Rain Light Rain
10:35 PM 44.6 °F 41.4 °F 42.8 °F 93% 29.96 in 10.0 mi NNW 5.8 mph - N/A   Overcast
10:50 PM 44.6 °F 42.2 °F 42.8 °F 93% 29.96 in 10.0 mi North 4.6 mph - N/A   Overcast
10:58 PM 44.2 °F 39.7 °F 42.6 °F 94% 29.99 in 10.0 mi NNW 8.1 mph - 0.03 in   Overcast
11:02 PM 44.6 °F 41.4 °F 42.8 °F 93% 29.97 in 10.0 mi NNW 5.8 mph - N/A   Light Drizzle
11:12 PM 44.6 °F 40.2 °F 42.8 °F 93% 29.97 in 10.0 mi NNW 8.1 mph - N/A   Light Drizzle
11:32 PM 42.8 °F 38.0 °F 41.0 °F 93% 29.96 in 10.0 mi North 8.1 mph - N/A Rain Light Rain
11:52 PM 42.8 °F 40.1 °F 41.0 °F 93% 29.93 in 9.0 mi ENE 4.6 mph - N/A Rain Light Rain
11:58 PM 42.8 °F 40.1 °F 41.0 °F 93% 29.94 in 8.0 mi East 4.6 mph - 0.03 in Rain Light Rain